Regional Weather Roundup
Issued by NWS

Home | Current Version | Previous Version | Graphics & Text | Print | Product List | Glossary On
Versions: 1 2 3 4 5 6 7 8 9 10 11 12 13 14 15 16 17 18 19 20 21 22 23 24 25 26 27 28 29 30 31 32 33 34 35 36 37 38 39 40 41 42 43 44 45 46 47 48 49 50
261
ASUS43 KMPX 230901
RWRMN
WEATHER ROUNDUP FOR MINNESOTA
NATIONAL WEATHER SERVICE TWIN CITIES/CHANHASSEN MN
400 AM CDT SUN APR 23 2017


NOTE: "FAIR" INDICATES FEW OR NO CLOUDS BELOW 12,000 FEET WITH NO
SIGNIFICANT WEATHER AND/OR OBSTRUCTIONS TO VISIBILITY. N/A MEANS
CURRENT SKY AND/OR WEATHER CONDITIONS ARE NOT AVAILABLE.

MNZ060>063-068>070-231000-
   Twin Cities Metro

CITY           SKY/WX    TMP DP  RH WIND       PRES   REMARKS
TWIN CITIES    PTCLDY    52  35  52 SW6       30.07S
ST PAUL        CLOUDY    45  41  86 N3        30.07S
CRYSTAL        PTCLDY    52  35  52 SW7       30.05S
LAKEVILLE      MOCLDY    50  37  62 SW6       30.07S
EDEN PRAIRIE   PTCLDY    50  36  58 W7        30.06S
SOUTH ST PAUL  PTCLDY    51  35  55 SW5       30.06F
LAKE ELMO      FAIR      43  37  81 SW6       30.07S
$$
MNZ001>005-007-008-013>017-022>024-027-028-231000-
   Northwest Minnesota

CITY           SKY/WX    TMP DP  RH WIND       PRES   REMARKS
BEMIDJI        CLOUDY    32  26  77 NE10      30.18R WCI  24
HALLOCK        CLOUDY    28  19  69 NE9       30.27S WCI  20
ROSEAU         CLOUDY    28  21  74 N12       30.25S WCI  18
WARROAD        CLOUDY    28  25  86 N12       30.25S WCI  18
THIEF RVR FALL CLOUDY    31  24  75 NE16      30.23S WCI  20
CROOKSTON      CLOUDY    32  25  74 NE10      30.23F WCI  24
FOSSTON        LGT SNOW  30  28  93 N10       30.19F WCI  21
DETROIT LAKES  RAIN      37  34  87 NE12G17   30.15R
MOORHEAD       CLOUDY    36  32  87 N14       30.17R
PARK RAPIDS    CLOUDY    37  31  78 NE12      30.13S
MAHNOMEN       LGT RAIN  33  32  96 NE14G20   30.17S WCI  23
$$
MNZ006-009>011-018-025>026-231000-
   North Central Minnesota

CITY           SKY/WX    TMP DP  RH WIND       PRES   REMARKS
BAUDETTE       PTCLDY    31  23  72 NE12      30.23S WCI  22
FLAG ISLAND    CLOUDY    30  16  55 NE18      30.26R WCI  18
INTL FALLS     CLOUDY    31  21  66 N13       30.22R WCI  21
WASKISH        CLOUDY    32  28  86 NE6       30.21R WCI  26
BIG FORK       CLOUDY    34  27  75 N7        30.18R WCI  28
LONGVILLE      LGT SNOW  34  32  93 CALM      30.15R
GRAND RAPIDS   LGT SNOW  32  32 100 N7        30.17R FOG     WCI  26
CRANE LAKE     CLOUDY    28  25  86 NE7       30.22R WCI  21
ORR            CLOUDY    30  27  86 MISG      30.15S
COOK           CLOUDY    30  27  86 N7        30.18R WCI  23
WALKER         LGT SNOW  32  32  99 CALM      30.15S
$$
MNZ012-019>021-037-231000-
   Northeast Minnesota

CITY           SKY/WX    TMP DP  RH WIND       PRES   REMARKS
DULUTH         LGT RAIN  40  37  89 N9        30.11R
ELY            CLOUDY    30  28  93 N6        30.14S WCI  24
HIBBING        FLURRIES  33  33 100 NE8       30.14R WCI  26
EVELETH        LGT RAIN  35  33  91 N13       30.15R WCI  26
DULUTH HARBOR  CLOUDY    43  39  87 NE14      30.14R
TWO HARBORS    CLOUDY    39  36  87 NE5       30.12R
SILVER BAY     MIX PCPN  36  34  93 CALM      30.12R
GRAND MARAIS     N/A     37  31  78 VRB5      30.15R
G MARAIS ARPRT CLOUDY    30  25  80 N8        30.11R WCI  23
$$
MNZ029>031-032-039>041-046>048-054>057-064-231000-
   West Central Minnesota

CITY           SKY/WX    TMP DP  RH WIND       PRES   REMARKS
FERGUS FALLS   CLOUDY    41  36  81 NE13      30.11R
WHEATON        PTCLDY    39  37  93 NW8       30.12S
MORRIS         CLOUDY    39  37  93 W3        30.07S
ALEXANDRIA     CLOUDY    44  38  79 NE10      30.09S
ELBOW LAKE     MOCLDY    43  37  80 NE13      30.08F
WADENA         LGT RAIN  39  36  87 NE8       30.11F
GLENWOOD       CLOUDY    45  39  81 N14       30.08S
APPLETON       PTCLDY    41  37  87 W6        30.09S
BENSON         PTCLDY    43  36  75 NW5       30.10S
ORTONVILLE     PTCLDY    39  36  87 NW8       30.10S
MADISON        CLOUDY    43  39  87 NW8       30.10S
WILLMAR        FAIR      46  41  81 NW7       30.09S
$$
MNZ033>034-036-042>043-049>051-058-059-231000-
   Central Minnesota

CITY           SKY/WX    TMP DP  RH WIND       PRES   REMARKS
ST CLOUD       PTCLDY    48  41  76 N8        30.07R
SAUK CENTRE    PTSUNNY   46  39  77 N7        30.08S
PAYNESVILLE    CLOUDY    47  38  73 W3        30.06F
AITKIN         CLOUDY    43  34  70 N13       30.11S
PINE RIVER     CLOUDY    37  34  87 N13       30.16S
BRAINERD       CLOUDY    42  35  76 NE10      30.12R
STAPLES        CLOUDY    39  34  81 NE7       30.12S
LONG PRAIRIE   CLOUDY    43  37  81 NW9       30.09S
LITTLE FALLS   CLOUDY    45  34  65 N6        30.10R
LITCHFIELD     CLOUDY    52  39  62 W6        30.08R
BUFFALO        PTCLDY    50  37  62 CALM      30.06F
MAPLE LAKE     PTCLDY    51  39  65 NW7       30.08R
HUTCHINSON     CLOUDY    51  38  63 SW7       30.08F
$$
MNZ037-044-045-052-053-231000-
   East Central Minnesota

CITY           SKY/WX    TMP DP  RH WIND       PRES   REMARKS
PRINCETON      PTCLDY    48  41  76 N7        30.08R
MORA           MOCLDY    45  36  70 N5        30.10R
CAMBRIDGE      CLEAR     52  39  62 N8        30.06R
RUSH CITY      PTCLDY    46  39  76 N8        30.08R
MOOSE LAKE     CLOUDY    43  36  75 N12       30.09S
HINCKLEY       FAIR      45  37  76 N14G23    30.09R
CLOQUET        CLOUDY    41  36  81 N8        30.11F
MCGREGOR       CLOUDY    41  36  81 NE8       30.11F
$$
MNZ071>073-080-081-089-090-097-098-231000-
   Southwest Minnesota

CITY           SKY/WX    TMP DP  RH WIND       PRES   REMARKS
MONTEVIDEO     CLOUDY    43  36  75 N8        30.09F
GRANITE FALLS  MOCLDY    45  38  77 W9        30.10R
CANBY          CLOUDY    43  39  87 NW9       30.12R
MARSHALL       CLOUDY    53  36  52 SW14      30.07F
REDWOOD FALLS  PTCLDY    50  36  58 SW15      30.07F
OLIVIA         MOCLDY    46  37  71 W9        30.08R
PIPESTONE      CLEAR     45  34  65 SW8       30.10S
WINDOM         CLEAR     46  36  66 SW10      30.10F
WORTHINGTON    CLEAR     47  33  58 SW12      30.12F
JACKSON        CLEAR     46  34  61 SW8       30.12S
TRACY          PTCLDY    51  38  61 SW12      30.09F
SLAYTON        CLEAR     44  36  71 SW9       30.11F
$$
MNZ065>067-074>077-082>085-091>093-231000-
   South Central Minnesota

CITY           SKY/WX    TMP DP  RH WIND       PRES   REMARKS
MANKATO        CLEAR     51  36  56 W10       30.10S
NEW ULM        CLEAR     48  36  61 SW9       30.09F
ST JAMES       CLEAR     45  37  76 SW7       30.12R
GLENCOE        CLOUDY    50  41  71 SW5       30.07F
FARIBAULT      CLEAR     48  37  66 CALM      30.10R
OWATONNA       CLEAR     46  36  66 SW6       30.10S
WASECA         CLEAR     41  34  75 SW5       30.11S
ALBERT LEA     PTCLDY    46  36  66 SW5       30.11S
$$
MNZ078>079-086>088-094>096-231000-
   Southeast Minnesota

CITY           SKY/WX    TMP DP  RH WIND       PRES   REMARKS
ROCHESTER      CLEAR     46  35  65 SW12      30.10F
RED WING       CLOUDY    45  37  76 CALM      30.07S
STANTON        MOCLDY    45  38  76 SW5       30.07S
DODGE CENTER   CLEAR     45  36  70 SW7       30.10S
WINONA         CLEAR     43  36  75 NW5       30.10S
AUSTIN         CLEAR     45  34  65 SW6       30.11S
PRESTON        CLEAR     45  33  61 SW9       30.11F
$$
ABBREVIATIONS USED IN REMARKS
   TC - TEMPERATURES IN CELSIUS
  WCI - WIND CHILL INDEX
   HX - HEAT INDEX
  VSB - VISIBILITY
$$




USA.gov is the U.S. government's official web portal to all federal, state and local government web resources and services.